This is the latest recevied weather packets stored in our database for station/object IZ1UQG-1. If no packets are shown the sender has not sent any weather packets the latest 10 day(s).
| Time | Temp. | Humidity | Pressure | Rain* | Wind** | Luminosity | Snow |
|---|---|---|---|---|---|---|---|
| 1777550046 | 19.44° C | 48% | 1023.2 hPa | 59.18 mm | - | - | - |
| 1777549746 | 19.44° C | 48% | 1023.1 hPa | 45.72 mm | - | - | - |
| 1777549446 | 18.89° C | 49% | 1023.2 hPa | 17.27 mm | - | - | - |
| 1777549146 | 18.89° C | 49% | 1023.3 hPa | 10.67 mm | - | - | - |
| 1777548846 | 18.89° C | 49% | 1023.3 hPa | 41.15 mm | - | - | - |
| 1777548546 | 18.89° C | 48% | 1023.4 hPa | 12.7 mm | - | - | - |
| 1777548246 | 18.89° C | 48% | 1023.3 hPa | 2.29 mm | - | - | - |
| 1777547946 | 18.89° C | 48% | 1023.5 hPa | 246.89 mm | - | - | - |
| 1777547646 | 18.89° C | 48% | 1023.7 hPa | 12.7 mm | - | - | - |
| 1777547346 | 18.89° C | 49% | 1023.9 hPa | 38.61 mm | - | - | - |
| 1777547046 | 18.33° C | 50% | 1023.9 hPa | 5.33 mm | - | - | - |
| 1777546746 | 18.33° C | 50% | 1024 hPa | 248.41 mm | - | - | - |
| 1777546446 | 17.78° C | 51% | 1024.1 hPa | 86.11 mm | - | - | - |
| 1777546146 | 17.78° C | 52% | 1024.1 hPa | 89.92 mm | - | - | - |
| 1777545846 | 17.78° C | 53% | 1024.2 hPa | 71.12 mm | - | - | - |
| 1777545546 | 17.22° C | 54% | 1024.3 hPa | 54.61 mm | - | - | - |
| 1777545246 | 17.22° C | 54% | 1024.3 hPa | 100.08 mm | - | - | - |
| 1777544946 | 16.67° C | 55% | 1024.4 hPa | 113.54 mm | - | - | - |
| 1777544646 | 16.67° C | 55% | 1024.5 hPa | 116.84 mm | - | - | - |
| 1777544346 | 16.67° C | 56% | 1024.5 hPa | 92.46 mm | - | - | - |
| 1777544046 | 16.67° C | 57% | 1024.4 hPa | 149.35 mm | - | - | - |
| 1777543746 | 16.11° C | 58% | 1024.4 hPa | 137.92 mm | - | - | - |
| 1777543446 | 16.11° C | 58% | 1024.4 hPa | 161.29 mm | - | - | - |
| 1777543146 | 16.11° C | 59% | 1024.4 hPa | 78.99 mm | - | - | - |
| 1777542846 | 16.11° C | 60% | 1024.5 hPa | 166.37 mm | - | - | - |
* Rain latest hour (hover to see other rain measurements)
** Current wind speed in m/s (hover to see current wind gust speed)